Location: Fort Wayne
(41.1310°N, 85.1290°W)
Time: 16:48:10
(UTC-04:00)

ISS - Visible Passes

Search period start: 18 April 2015 00:00
Search period end: 28 April 2015 00:00
Orbit: 396 x 403 km, 51.6° (Epoch: 18 April)

Date Brightness Start Highest point End Pass type
(mag) Time Alt. Az. Time Alt. Az. Time Alt. Az.
18 Apr -2.1 21:20:18 10° NW 21:23:17 32° NNE 21:25:23 16° E visible
18 Apr -0.8 22:56:41 10° WNW 22:57:57 19° W 22:57:57 19° W visible
19 Apr -3.3 22:02:35 10° WNW 22:05:50 67° SW 22:06:15 58° S visible
20 Apr -3.1 21:08:38 10° NW 21:11:53 62° NNE 21:14:33 14° ESE visible
20 Apr -0.6 22:46:01 10° W 22:47:06 14° WSW 22:47:06 14° WSW visible
21 Apr -1.8 21:51:14 10° WNW 21:54:06 28° SW 21:55:26 21° S visible
22 Apr -2.9 20:56:56 10° WNW 21:00:09 59° SW 21:03:20 10° SE visible
23 Apr -0.6 21:40:25 10° W 21:42:04 13° SW 21:43:36 10° SSW visible
